Back to catalog

COSMOS 2251 DEB

AliveLEO
NORAD 38058·DEBRIS·🇷🇺 Russia

Launched Jun 16, 1993 from Plesetsk Cosmodrome

Loading…

Next Passes (next 24 hours)

TLE

StaleSource: Space-Track

Epoch: Sep 1, 2026, 07:15 UTC

1 38058U 93036BRQ 26244.30267759  .00001864  00000-0  14017-2 0  9996
2 38058  73.9989 222.9664 0397338  52.0273 311.6038 13.63372207619062

Track COSMOS 2251 DEB in real time with AllMySat

Download on the App Store